Regional Weather Roundup
Issued by NWS State College, PA

Home | Current Version | Previous Version | Text Only | Print | Product List | Glossary Off
Versions: 1 2 3 4 5 6 7 8 9 10 11 12 13 14 15 16 17 18 19 20 21 22 23 24 25 26 27 28 29 30 31 32 33 34 35 36 37 38 39 40 41 42 43 44 45 46 47 48 49 50

630
ASUS41 KCTP 200310
RWRCTP
PHLRWRCTP ALL

REGIONAL WEATHER ROUNDUP
NATIONAL WEATHER SERVICE STATE COLLEGE PA
1100 PM EDT TUE SEP 19 2017

Note: "fair" indicates few or no clouds below 12,000 feet with no
significant weather and/or obstructions to visibility.

* = STATION THAT DOES NOT REPORT PRECIPITATION /E.G. RAIN...SNOW...ETC/
    THUNDER OR FOG.

PAZ002>004-007>009-013>016-020>023-029>032-200400-
WESTERN PENNSYLVANIA

CITY           SKY/WX    TMP DP  RH WIND       PRES   REMARKS
ERIE           CLEAR     66  63  90 CALM      29.99R
MEADVILLE      CLEAR     66  66 100 CALM      30.01S
FRANKLIN*      CLEAR     62  62 100 CALM      30.03S
NEW CASTLE     FAIR      67  65  93 CALM      30.00F
BEAVER COUNTY  NOT AVBL
BUTLER*        CLEAR     61  60  97 CALM      30.01S
PITTSBURGH INT PTCLDY    70  64  81 CALM      29.99S
PITTSBURGH     CLEAR     72  59  63 SE3       29.99S
INDIANA*       CLEAR     63  63 100 CALM      30.04S
LATROBE        CLEAR     63  63 100 CALM      30.01S
WASHINGTON CO* PTCLDY    63  61  94 CALM      30.00S
$$

PAZ004>006-010>012-017>019-024>028-033>037-041-042-045-046-049>053-200400-
CENTRAL PENNSYLVANIA

CITY           SKY/WX    TMP DP  RH WIND       PRES   REMARKS
BRADFORD       CLEAR     58  56  93 CALM      30.05R
DUBOIS         CLEAR     62  57  83 E3        30.02S
CLEARFIELD     CLEAR     61  59  93 N5        30.02S
JOHNSTOWN      CLEAR     66  60  81 CALM      30.04S
ALTOONA        CLEAR     58  58 100 CALM      30.02S
STATE COLLEGE  PTCLDY    63  60  90 CALM      30.01R
WILLIAMSPORT   CLEAR     64  61  90 W3        29.97S
SELINSGROVE    CLEAR     60  60 100 CALM      29.98R FOG
FT INDIANTOWN  MOCLDY    70  65  84 NE3       29.95S
CAPITAL CITY   MOCLDY    68  63  84 CALM      29.95R
HARRISBURG     PTCLDY    69  65  86 NW7       29.94R
YORK           CLEAR     65  64  97 W7        29.95R
$$

PAZ038>040-043-044-047-048-054-055-060>062-067>071-200400-
EASTERN PENNSYLVANIA

CITY           SKY/WX    TMP DP  RH WIND       PRES   REMARKS
SCRANTON       MOCLDY    69  61  75 CALM      29.98S
MOUNT POCONO   MOCLDY    67  59  75 NE9       30.00F
ALLENTOWN      CLOUDY    70  64  81 CALM      29.93F
QUAKERTOWN*    CLOUDY    68  66  94 N5        29.93F
READING        CLOUDY    73  64  73 N5        29.93S
LANCASTER      PTCLDY    73  65  75 NE8       29.93S
COATESVILLE    CLOUDY    72  63  73 N5        29.95S
POTTSTOWN      LGT RAIN  68  67  96 N13       29.93F FOG
BLUE BELL      CLOUDY    66  64  94 N3        29.91F
DOYLESTOWN     NOT AVBL
WILLOW GROVE   NOT AVBL
NORTH PHILA    CLOUDY    72  65  78 N10       29.88F
PHILADELPHIA   CLOUDY    72  65  78 N14       29.87F
$$




USA.gov is the U.S. government's official web portal to all federal, state and local government web resources and services.